Date,TemperatureHighF,TemperatureAvgF,TemperatureLowF,DewpointHighF,DewpointAvgF,DewpointLowF,HumidityHigh,HumidityAvg,HumidityLow,PressureMaxIn,PressureMinIn,WindSpeedMaxMPH,WindSpeedAvgMPH,GustSpeedMaxMPH,PrecipitationSumIn
2013-1-1,38,30,17,0,0,0,0,0,100,29.89,29.66,27,8,32,0.00
2013-1-2,29,18,7,0,0,0,0,0,100,30.09,29.87,24,6,27,0.00
2013-1-3,24,13,3,0,0,0,0,0,100,30.11,29.96,18,3,18,0.00
2013-1-4,37,29,16,0,0,0,0,0,100,29.96,29.76,25,6,27,0.00
2013-1-5,40,32,23,0,0,0,0,0,100,30.25,29.77,22,4,25,0.00
2013-1-6,43,33,23,0,0,0,0,0,100,30.21,29.90,15,2,17,0.00
2013-1-7,38,32,27,0,0,0,0,0,100,30.39,29.92,15,2,15,0.00
2013-1-8,46,36,27,0,0,0,0,0,100,30.34,30.21,20,5,22,0.00
2013-1-9,43,35,26,0,0,0,0,0,100,30.39,29.93,25,3,25,0.00
2013-1-10,46,40,32,0,0,0,0,0,100,30.51,29.96,34,8,40,0.00
2013-1-11,41,35,27,0,0,0,0,0,100,30.50,30.21,17,2,17,0.11
2013-1-12,44,41,38,0,0,0,0,0,100,30.21,30.10,15,1,15,0.01
2013-1-13,50,45,41,0,0,0,0,0,100,30.13,29.95,12,1,13,0.00
2013-1-14,62,50,40,0,0,0,0,0,100,30.23,29.80,19,5,21,0.00
2013-1-15,43,37,32,0,0,0,0,0,100,30.30,30.20,11,1,12,0.00
2013-1-16,34,32,29,0,0,0,0,0,100,30.24,29.79,6,0,6,0.01
2013-1-17,42,33,27,0,0,0,0,0,100,30.08,29.79,19,6,20,0.36
2013-1-18,27,20,14,0,0,0,0,0,100,30.41,30.05,26,6,27,0.00
2013-1-19,46,36,20,0,0,0,0,0,100,30.36,29.84,28,8,32,0.00
2013-1-20,54,40,27,0,0,0,0,0,100,29.88,29.47,37,10,38,0.00
2013-1-21,30,25,20,0,0,0,0,0,100,30.06,29.76,24,4,24,0.00
2013-1-22,27,20,12,0,0,0,0,0,100,30.05,29.73,23,6,26,0.00
2013-1-23,14,9,3,0,0,0,0,0,100,30.13,30.04,24,7,25,0.00
2013-1-24,16,8,0,0,0,0,0,0,100,30.18,30.01,32,10,33,0.00
2013-1-25,22,14,6,0,0,0,0,0,100,30.25,30.05,27,6,31,0.00
2013-1-26,26,17,12,0,0,0,0,0,100,30.18,29.99,27,6,29,0.00
2013-1-27,29,20,13,0,0,0,0,0,100,30.44,30.17,26,8,28,0.00
2013-1-28,30,23,17,0,0,0,0,0,100,30.43,30.02,12,1,12,0.00
2013-1-29,37,29,24,0,0,0,0,0,100,30.19,30.02,9,0,9,0.16
2013-1-30,59,45,32,0,0,0,0,0,100,30.15,29.43,27,5,29,0.21
2013-1-31,61,46,30,0,0,0,0,0,100,29.53,28.89,39,12,43,0.34
2013-2-1,35,28,19,0,0,0,0,0,100,30.05,29.53,26,8,28,0.00
2013-2-2,32,24,17,0,0,0,0,0,100,30.21,30.02,14,2,14,0.00
2013-2-3,29,25,22,0,0,0,0,0,100,30.03,29.69,14,2,14,0.00
2013-2-4,33,25,20,0,0,0,0,0,100,29.89,29.69,28,6,28,0.00
2013-2-5,30,24,19,0,0,0,0,0,100,30.02,29.89,14,3,14,0.00
2013-2-6,42,30,23,0,0,0,0,0,100,30.29,29.92,23,3,23,0.01
2013-2-7,31,23,16,0,0,0,0,0,100,30.52,30.27,19,3,20,0.00
2013-2-8,32,26,16,0,0,0,0,0,100,30.49,29.65,43,8,45,0.00
2013-2-9,24,18,14,0,0,0,0,0,100,30.14,29.58,28,2,30,0.00
2013-2-10,40,24,11,0,0,0,0,0,100,30.36,30.14,12,0,12,0.00
2013-2-11,38,30,20,0,0,0,0,0,100,30.33,29.58,19,1,21,0.35
2013-2-12,46,38,33,0,0,0,0,0,100,29.82,29.55,26,5,29,0.00
2013-2-13,47,35,29,0,0,0,0,0,100,29.84,29.69,16,2,17,0.00
2013-2-14,46,36,30,0,0,0,0,0,100,29.97,29.68,17,3,17,0.00
2013-2-15,51,38,29,0,0,0,0,0,100,29.97,29.87,15,2,15,0.00
2013-2-16,41,35,31,0,0,0,0,0,100,29.94,29.70,21,3,21,0.00
2013-2-17,31,22,16,0,0,0,0,0,100,29.70,29.30,42,13,48,0.00
2013-2-18,33,23,14,0,0,0,0,0,100,30.10,29.57,35,11,42,0.00
2013-2-19,42,33,23,0,0,0,0,0,100,30.13,29.54,20,4,21,0.51
2013-2-20,40,33,27,0,0,0,0,0,100,29.73,29.48,27,5,31,0.00
2013-2-21,32,27,24,0,0,0,0,0,100,30.15,29.71,25,7,26,0.00
2013-2-22,44,32,22,0,0,0,0,0,100,30.37,30.14,20,2,25,0.00
2013-2-23,38,35,31,0,0,0,0,0,100,30.33,29.95,18,4,21,0.02
2013-2-24,38,34,30,0,0,0,0,0,100,29.95,29.71,25,4,28,0.48
2013-2-25,46,34,28,0,0,0,0,0,100,30.23,29.89,7,0,7,0.26
2013-2-26,50,38,28,0,0,0,0,0,100,30.34,30.18,17,2,18,0.00
2013-2-27,41,38,35,0,0,0,0,0,100,30.19,29.54,34,12,36,2.69
2013-2-28,49,38,33,0,0,0,0,0,100,29.62,29.51,10,0,12,0.01
2013-3-1,46,37,33,0,0,0,0,0,100,29.66,29.53,14,2,16,0.00
2013-3-2,50,38,32,0,0,0,0,0,100,29.66,29.58,14,2,15,0.00
2013-3-3,41,35,31,0,0,0,0,0,100,29.62,29.53,17,3,18,0.05
2013-3-4,41,34,30,0,0,0,0,0,100,29.70,29.53,32,10,32,0.00
2013-3-5,46,37,30,0,0,0,0,0,100,30.06,29.70,19,3,21,0.00
2013-3-6,39,37,34,0,0,0,0,0,100,30.14,30.05,38,15,38,0.32
2013-3-7,36,33,30,0,0,0,0,0,100,30.11,30.00,33,6,35,0.04
2013-3-8,42,35,29,0,0,0,0,0,100,30.14,29.95,22,3,25,0.15
2013-3-9,48,37,30,0,0,0,0,0,100,30.34,30.14,22,2,22,0.00
2013-3-10,44,35,26,0,0,0,0,0,100,30.40,30.29,14,2,15,0.00
2013-3-11,53,41,34,0,0,0,0,0,100,30.32,30.13,15,3,16,0.00
2013-3-12,46,43,39,0,0,0,0,0,100,30.15,29.70,18,2,20,0.28
2013-3-13,55,44,35,0,0,0,0,0,100,29.75,29.66,18,3,19,0.00
2013-3-14,39,32,22,0,0,0,0,0,100,29.79,29.66,32,6,33,0.00
2013-3-15,43,30,19,0,0,0,0,0,100,29.83,29.60,31,7,36,0.00
2013-3-16,42,34,27,0,0,0,0,0,100,29.88,29.61,22,3,27,0.00
2013-3-17,39,30,23,0,0,0,0,0,100,30.32,29.88,29,6,30,0.00
2013-3-18,39,29,17,0,0,0,0,0,100,30.45,30.25,19,5,21,0.00
2013-3-19,35,32,30,0,0,0,0,0,100,30.25,29.63,38,11,41,0.89
2013-3-20,37,32,26,0,0,0,0,0,100,29.78,29.68,25,7,25,0.33
2013-3-21,44,32,26,0,0,0,0,0,100,29.79,29.60,13,3,14,0.00
2013-3-22,47,35,28,0,0,0,0,0,100,29.69,29.58,19,3,23,0.00
2013-3-23,44,36,28,0,0,0,0,0,100,29.73,29.58,31,8,34,0.00
2013-3-24,55,40,31,0,0,0,0,0,100,29.78,29.70,21,3,22,0.00
2013-3-25,45,37,30,0,0,0,0,0,100,29.76,29.54,22,4,23,0.00
2013-3-26,55,43,32,0,0,0,0,0,100,29.74,29.53,20,2,20,0.00
2013-3-27,58,44,33,0,0,0,0,0,100,29.85,29.70,21,4,23,0.00
2013-3-28,54,42,36,0,0,0,0,0,100,29.99,29.85,14,2,15,0.02
2013-3-29,62,48,38,48,0,-100,0,0,100,30.01,29.94,16,2,18,0.00
2013-3-30,59,47,37,47,0,0,0,0,100,30.08,29.98,16,3,16,0.01
2013-3-31,55,44,31,0,0,0,0,0,100,30.11,29.78,23,4,24,0.01
2013-4-1,63,46,34,0,0,0,0,0,100,29.78,29.47,25,6,30,0.30
2013-4-2,44,35,30,42,3,0,0,0,100,29.88,29.74,36,8,36,0.00
2013-4-3,48,38,30,48,38,30,0,0,100,30.10,29.87,35,18,35,0.00
2013-4-4,59,43,31,58,43,31,0,0,100,30.25,30.01,22,13,22,0.00
2013-4-5,48,43,38,0,0,0,0,0,100,29.85,29.71,26,9,29,0.00
2013-4-6,48,38,30,0,0,0,0,0,100,30.33,29.85,33,8,41,0.00
2013-4-7,55,42,27,0,0,0,0,0,100,30.33,29.96,29,6,32,0.00
2013-4-8,68,50,43,0,0,0,0,0,100,30.10,29.92,20,4,21,0.00
2013-4-9,68,51,42,0,0,0,0,0,100,30.09,29.84,22,4,24,0.12
2013-4-10,55,46,43,0,0,0,0,0,100,30.00,29.85,11,1,11,0.60
2013-4-11,52,44,41,0,0,0,0,0,100,30.14,29.83,11,2,12,0.11
2013-4-12,42,38,36,0,0,0,0,0,100,30.20,29.80,30,11,30,0.57
2013-4-13,51,40,34,0,0,0,0,0,100,29.91,29.75,26,3,29,0.06
2013-4-14,57,46,39,0,0,0,0,0,100,30.19,29.90,20,3,22,0.01
2013-4-15,56,44,34,0,0,0,0,0,100,30.38,30.19,17,3,18,0.00
2013-4-16,66,51,39,0,0,0,0,0,100,30.39,30.00,28,8,29,0.00
2013-4-17,69,58,45,0,0,0,0,0,100,30.31,30.00,28,5,30,0.00
2013-4-18,60,49,38,0,0,0,0,0,100,30.44,30.14,20,4,20,0.00
2013-4-19,78,61,46,0,0,0,0,0,100,30.14,29.61,29,9,34,0.00
2013-4-20,68,53,44,0,0,0,0,0,100,30.17,29.56,24,7,27,0.35
2013-4-21,57,44,34,0,0,0,0,0,100,30.67,30.17,28,4,28,0.00
2013-4-22,54,43,31,0,0,0,0,0,100,30.78,30.60,18,5,18,0.00
2013-4-23,42,41,40,0,0,0,0,0,100,30.60,30.13,26,8,27,0.10
2013-4-24,64,50,41,0,0,0,0,0,100,30.14,29.77,23,5,25,0.01
2013-4-25,69,56,46,0,0,0,0,0,100,30.25,29.78,23,5,26,0.05
2013-4-26,58,49,44,0,0,0,0,0,100,30.42,30.25,17,3,18,0.00
2013-4-27,62,50,38,0,0,0,0,0,100,30.41,30.28,14,3,14,0.00
2013-4-28,63,52,40,0,0,0,0,0,100,30.34,30.22,19,3,19,0.00
2013-4-29,65,53,46,0,0,0,0,0,100,30.26,30.18,17,3,19,0.00
2013-4-30,68,55,46,0,0,0,0,0,100,30.37,30.23,13,3,13,0.00
2013-5-1,63,53,40,0,0,0,0,0,100,30.47,30.36,14,2,14,0.00
2013-5-2,69,53,44,0,0,0,0,0,100,30.49,30.36,25,3,27,0.00
2013-5-3,60,50,44,0,0,0,0,0,100,30.53,30.36,20,3,23,0.00
2013-5-4,59,49,41,0,0,0,0,0,100,30.38,30.31,15,1,17,0.00
2013-5-5,61,49,37,0,0,0,0,0,100,30.33,30.25,14,2,16,0.00
2013-5-6,60,48,38,0,0,0,0,0,100,30.28,30.15,14,1,14,0.01
2013-5-7,68,56,42,0,0,0,0,0,100,30.17,30.08,19,3,20,0.00
2013-5-8,66,57,52,0,0,0,0,0,100,30.22,30.05,12,1,12,0.03
2013-5-9,58,55,53,0,0,0,0,0,100,30.06,29.88,14,1,14,0.80
2013-5-10,66,58,54,0,0,0,0,0,100,29.94,29.87,17,2,17,0.00
2013-5-11,70,61,55,0,0,0,0,0,100,29.89,29.67,23,6,28,0.17
2013-5-12,73,59,50,0,0,0,0,0,100,29.76,29.53,24,3,24,0.08
2013-5-13,61,51,43,0,0,0,0,0,100,30.00,29.76,21,6,26,0.00
2013-5-14,64,52,41,0,0,0,0,0,100,30.03,29.92,20,3,20,0.00
2013-5-15,67,53,40,0,0,0,0,0,100,30.04,29.64,23,5,23,0.09
2013-5-16,83,67,49,0,0,0,0,0,100,29.78,29.58,26,4,27,0.01
2013-5-17,69,58,50,0,0,0,0,0,100,30.19,29.78,18,4,20,0.00
2013-5-18,67,56,46,0,0,0,0,0,100,30.29,30.19,14,2,15,0.00
2013-5-19,62,54,51,0,0,0,0,0,100,30.35,30.22,14,2,16,0.04
2013-5-20,82,62,51,0,0,0,0,0,100,30.22,29.89,13,2,13,0.03
2013-5-21,60,53,50,0,0,0,0,0,100,30.04,29.91,22,5,24,0.17
2013-5-22,56,52,49,0,0,0,0,0,100,30.06,29.86,18,0,18,1.32
2013-5-23,75,60,51,0,0,0,0,0,100,29.92,29.78,22,3,24,0.08
2013-5-24,70,60,50,0,0,0,0,0,100,29.81,29.62,15,3,16,0.23
2013-5-25,51,48,39,0,0,0,0,0,100,29.80,29.65,21,4,28,0.00
2013-5-26,59,48,39,0,0,0,0,0,100,30.04,29.64,24,8,28,0.01
2013-5-27,73,59,42,0,0,0,0,0,100,30.15,30.03,20,5,24,0.02
2013-5-28,70,58,46,0,0,0,0,0,100,30.23,30.15,8,2,9,0.02
2013-5-29,62,56,52,0,0,0,0,0,100,30.16,29.97,13,1,13,0.02
2013-5-30,89,75,55,0,0,0,0,0,100,30.03,29.95,19,2,19,0.03
2013-5-31,98,83,68,0,0,0,0,0,100,30.04,29.87,18,4,19,0.04
2013-6-1,99,84,70,0,0,0,0,0,100,29.92,29.79,20,6,22,0.00
2013-6-2,95,80,66,0,0,0,0,0,100,29.82,29.66,31,7,37,0.00
2013-6-3,80,68,60,0,0,0,0,0,100,29.82,29.70,15,4,17,0.27
2013-6-4,72,63,53,0,0,0,0,0,100,30.07,29.78,24,5,24,0.00
2013-6-5,72,61,51,0,0,0,0,0,100,30.15,30.06,17,3,20,0.00
2013-6-6,68,61,55,0,0,0,0,0,100,30.17,30.09,12,2,13,0.01
2013-6-7,57,54,52,0,0,0,0,0,100,30.10,29.82,24,7,26,2.07
2013-6-8,79,63,52,0,0,0,0,0,100,29.96,29.60,23,4,26,1.01
2013-6-9,83,71,57,0,0,0,0,0,100,30.13,29.96,14,2,16,0.00
2013-6-10,74,62,56,0,0,0,0,0,100,30.20,30.02,10,1,10,0.42
2013-6-11,60,55,53,0,0,0,0,0,100,30.02,29.56,23,4,25,1.84
2013-6-12,70,61,55,0,0,0,0,0,100,29.77,29.53,22,4,22,0.10
2013-6-13,71,60,54,0,0,0,0,0,100,29.79,29.69,12,1,13,0.21
2013-6-14,77,62,53,0,0,0,0,0,100,29.74,29.64,15,2,16,0.63
2013-6-15,81,68,57,0,0,0,0,0,100,29.89,29.74,16,2,18,0.00
2013-6-16,82,68,56,0,0,0,0,0,100,29.90,29.67,17,3,19,0.00
2013-6-17,90,71,60,0,0,0,0,0,100,29.86,29.72,34,3,34,0.03
2013-6-18,75,63,58,0,0,0,0,0,100,29.93,29.85,10,1,11,0.16
2013-6-19,74,64,55,0,0,0,0,0,100,30.11,29.90,15,2,16,0.00
2013-6-20,76,65,52,0,0,0,0,0,100,30.24,30.11,14,3,14,0.00
2013-6-21,87,70,59,0,0,0,0,0,100,30.21,30.16,13,3,13,0.00
2013-6-22,88,75,62,0,0,0,0,0,100,30.18,30.06,20,4,20,0.00
2013-6-23,92,74,61,0,0,0,0,0,100,30.11,29.92,18,3,26,0.04
2013-6-24,97,81,65,0,0,0,0,0,100,29.96,29.81,41,4,41,0.04
2013-6-25,98,80,66,0,0,0,0,0,100,29.88,29.68,22,4,24,0.31
2013-6-26,88,71,60,0,0,0,0,0,100,29.85,29.68,18,2,19,0.70
2013-6-27,65,61,58,0,0,-100,0,0,100,29.87,29.76,18,3,21,0.11
2013-6-28,75,64,56,0,0,0,0,0,100,29.77,29.45,25,6,26,0.39
2013-6-29,81,72,63,0,0,0,0,0,100,29.68,29.49,19,4,22,0.00
2013-6-30,82,73,64,0,0,0,0,0,100,29.90,29.68,15,4,16,0.00
2013-7-1,72,68,64,0,0,0,0,0,100,30.05,29.90,14,2,14,3.42
2013-7-2,70,63,57,0,0,0,0,0,100,30.20,30.05,19,2,20,0.04
2013-7-3,82,68,58,0,0,0,0,0,100,30.20,30.07,14,2,14,0.01
2013-7-4,99,84,73,0,0,0,0,0,100,30.15,30.02,16,5,17,0.00
2013-7-5,101,86,76,0,0,0,0,0,100,30.11,29.97,19,5,19,0.00
2013-7-6,93,84,74,0,0,0,0,0,100,30.03,29.92,15,3,19,0.00
2013-7-7,97,80,71,0,0,0,0,0,100,29.98,29.88,12,2,13,0.00
2013-7-8,80,72,65,0,0,0,0,0,100,30.05,29.87,16,4,19,0.00
2013-7-9,75,67,64,0,0,0,0,0,100,30.09,30.02,13,2,14,0.00
2013-7-10,78,70,63,0,0,0,0,0,100,30.07,29.75,12,2,12,0.02
2013-7-11,86,75,69,0,0,0,0,0,100,29.91,29.72,14,2,21,0.06
2013-7-12,77,71,67,0,0,0,0,0,100,30.18,29.91,22,3,24,0.00
2013-7-13,80,71,65,0,0,0,0,0,100,30.30,30.18,10,2,10,0.00
2013-7-14,94,77,67,0,0,0,0,0,100,30.27,30.17,10,2,10,0.00
2013-7-15,94,80,70,0,0,0,0,0,100,30.17,30.05,11,2,12,0.00
2013-7-16,97,80,69,0,0,0,0,0,100,30.13,30.07,10,2,10,0.00
2013-7-17,88,79,70,0,0,0,0,0,100,30.15,29.93,18,5,19,0.00
2013-7-18,92,78,72,0,0,0,0,0,100,29.99,29.90,14,3,15,0.01
2013-7-19,102,85,69,0,0,0,0,0,100,29.91,29.65,29,6,29,0.00
2013-7-20,99,83,72,0,0,0,0,0,100,29.76,29.60,26,4,29,0.18
2013-7-21,82,73,68,0,0,0,0,0,100,29.97,29.76,11,3,11,0.00
2013-7-22,80,71,67,0,0,0,0,0,100,30.01,29.87,11,3,12,0.00
2013-7-23,72,68,66,0,0,0,0,0,100,29.87,29.51,14,2,16,1.09
2013-7-24,91,76,65,0,0,0,0,0,100,29.95,29.55,19,3,19,0.05
2013-7-25,66,62,60,0,0,0,0,0,100,30.10,29.94,17,3,18,0.12
2013-7-26,74,66,61,0,0,0,0,0,100,30.04,29.88,19,4,21,0.06
2013-7-27,92,73,62,0,0,0,0,0,100,30.01,29.94,16,4,16,0.00
2013-7-28,74,67,63,0,0,0,0,0,100,30.00,29.96,19,2,20,0.03
2013-7-29,75,68,63,0,0,0,0,0,100,30.02,29.93,12,1,14,0.01
2013-7-30,86,74,62,0,0,0,0,0,100,30.06,29.99,14,2,18,0.00
2013-7-31,83,71,61,0,0,0,0,0,100,30.10,30.01,14,3,17,0.00
2013-8-1,83,72,62,0,0,0,0,0,100,30.02,29.85,16,3,19,0.00
2013-8-2,84,71,63,0,0,0,0,0,100,29.85,29.74,16,2,18,0.56
2013-8-3,84,73,64,0,0,0,0,0,100,29.82,29.72,17,4,18,0.00
2013-8-4,85,71,61,0,0,0,0,0,100,29.84,29.73,14,3,17,0.00
2013-8-5,78,66,57,0,0,0,0,0,100,30.02,29.84,21,5,23,0.00
2013-8-6,81,66,53,0,0,0,0,0,100,30.13,30.02,12,2,13,0.00
2013-8-7,80,67,56,0,0,0,0,0,100,30.16,30.08,16,3,16,0.00
2013-8-8,86,72,62,0,0,0,0,0,100,30.10,29.96,18,3,19,0.02
2013-8-9,73,69,64,0,0,0,0,0,100,30.00,29.69,22,2,24,1.61
2013-8-10,85,74,63,0,0,0,0,0,100,29.99,29.74,19,3,20,0.01
2013-8-11,84,69,56,0,0,0,0,0,100,30.05,29.96,18,2,18,0.00
2013-8-12,88,71,59,0,0,0,0,0,100,29.99,29.88,12,2,14,0.00
2013-8-13,71,66,62,0,0,0,0,0,100,29.89,29.66,11,2,11,0.01
2013-8-14,77,68,60,0,0,0,0,0,100,29.92,29.63,23,5,26,0.00
2013-8-15,84,68,55,0,0,0,0,0,100,30.08,29.92,16,2,16,0.00
2013-8-16,86,68,55,0,0,0,0,0,100,30.15,30.06,14,2,16,0.00
2013-8-17,81,67,57,0,0,0,0,0,100,30.26,30.15,10,2,11,0.00
2013-8-18,80,68,58,0,0,0,0,0,100,30.25,30.05,16,2,16,0.00
2013-8-19,86,73,62,0,0,0,0,0,100,30.05,29.89,13,3,16,0.00
2013-8-20,90,73,64,0,0,0,0,0,100,30.05,29.93,12,2,12,0.00
2013-8-21,87,74,63,0,0,0,0,0,100,30.10,29.97,12,2,12,0.00
2013-8-22,95,79,67,0,0,0,0,0,100,29.99,29.77,17,5,20,0.00
2013-8-23,83,72,64,0,0,0,0,0,100,30.10,29.77,17,2,18,0.00
2013-8-24,79,65,54,0,0,0,0,0,100,30.30,30.10,10,1,10,0.00
2013-8-25,82,67,54,0,0,0,0,0,100,30.34,30.13,15,2,16,0.00
2013-8-26,88,73,63,0,0,0,0,0,100,30.14,29.82,17,4,18,0.00
2013-8-27,81,72,66,0,0,0,0,0,100,29.88,29.80,12,1,13,0.00
2013-8-28,78,67,62,0,0,0,0,0,100,29.98,29.84,13,1,15,0.00
2013-8-29,66,64,63,0,0,0,0,0,100,30.07,29.94,18,2,21,0.02
2013-9-3,72,68,64,0,0,0,0,0,100,29.76,29.67,11,2,15,0.20
2013-9-4,85,71,60,0,0,0,0,0,100,29.87,29.75,16,3,18,0.00
2013-9-5,71,63,53,0,0,0,0,0,100,30.13,29.82,15,2,17,0.01
2013-9-6,76,60,46,0,0,0,0,0,100,30.22,30.05,14,2,14,0.00
2013-9-7,86,67,52,0,0,0,0,0,100,30.05,29.80,13,4,14,0.00
2013-9-8,74,65,52,0,0,0,0,0,100,30.07,29.70,27,3,28,0.00
2013-9-9,77,60,46,0,0,0,0,0,100,30.22,30.07,14,2,15,0.00
2013-9-10,72,65,56,0,0,0,0,0,100,30.13,30.00,23,3,23,0.05
2013-9-11,100,80,64,0,0,0,0,0,100,30.02,29.88,22,4,25,0.03
2013-9-12,91,72,64,0,0,0,0,0,100,29.93,29.64,19,2,20,1.20
2013-9-13,77,65,58,0,0,0,0,0,100,29.72,29.54,15,1,16,0.36
2013-9-14,72,61,54,0,0,0,0,0,100,30.02,29.71,16,3,16,0.07
2013-9-15,78,62,50,0,0,0,0,0,100,30.13,30.01,16,3,16,0.00
2013-9-16,70,58,47,0,0,0,0,0,100,30.24,29.96,20,4,21,0.01
2013-9-17,66,53,41,0,0,0,0,0,100,30.41,30.24,19,3,22,0.00
2013-9-18,80,61,46,0,0,0,0,0,100,30.29,30.10,12,2,14,0.00
2013-9-19,76,62,50,0,0,0,0,0,100,30.11,30.00,8,1,8,0.00
2013-9-20,75,62,51,0,0,0,0,0,100,30.08,29.98,9,1,9,0.00
2013-9-21,74,62,53,0,0,0,0,0,100,30.00,29.71,16,4,19,0.01
2013-9-22,73,63,52,0,0,0,0,0,100,29.78,29.57,21,5,24,0.45
2013-9-23,65,54,45,0,0,0,0,0,100,29.96,29.78,16,4,23,0.00
2013-9-24,67,54,44,0,0,0,0,0,100,29.96,29.79,21,4,22,0.00
2013-9-25,59,57,56,0,0,0,0,0,100,29.97,29.88,8,1,9,0.00
2013-9-26,70,59,51,0,0,0,0,0,100,30.11,29.96,14,1,15,0.00
2013-9-27,72,60,53,0,0,0,0,0,100,30.23,30.10,13,2,14,0.00
2013-9-28,72,59,50,0,0,0,0,0,100,30.31,30.22,14,1,15,0.01
2013-9-29,68,56,47,0,0,0,0,0,100,30.25,30.10,12,1,12,0.01
2013-9-30,65,54,46,0,0,0,0,0,100,30.11,29.95,9,1,9,0.00
2013-10-1,80,61,47,0,0,0,0,0,100,29.95,29.81,12,1,12,0.01
2013-10-2,82,68,56,0,0,0,0,0,100,29.90,29.77,16,3,17,0.00
2013-10-3,82,66,56,0,0,0,0,0,100,30.05,29.90,10,1,11,0.00
2013-10-4,66,60,53,0,0,0,0,0,100,30.07,30.01,9,1,10,0.00
2013-10-5,65,60,58,0,0,0,0,0,100,30.11,30.03,16,3,18,0.00
2013-10-6,59,56,54,0,0,0,0,0,100,30.23,30.10,24,8,24,0.16
2013-10-7,71,63,57,0,0,0,0,0,100,30.13,29.78,19,4,23,0.10
2013-10-8,67,56,47,0,0,0,0,0,100,30.36,30.18,16,2,16,0.00
2013-10-9,65,52,42,0,0,0,0,0,100,30.46,30.35,14,2,15,0.00
2013-10-10,64,52,42,0,0,0,0,0,100,30.35,30.17,10,2,10,0.00
2013-10-11,70,56,48,0,0,0,0,0,100,30.17,30.09,12,2,12,0.00
2013-10-12,57,55,50,0,0,0,0,0,100,30.39,30.13,23,6,24,0.00
2013-10-13,65,53,44,0,0,0,0,0,100,30.44,30.37,10,1,12,0.01
2013-10-14,66,52,40,0,0,0,0,0,100,30.38,30.22,14,3,15,0.00
2013-10-15,60,57,54,0,0,0,0,0,100,30.25,30.18,13,1,14,0.00
2013-10-17,65,60,58,0,0,0,0,0,100,29.74,29.68,6,0,6,0.00
2013-10-18,70,61,53,0,0,0,0,0,100,29.86,29.56,30,5,30,0.10
2013-10-19,71,57,45,0,0,0,0,0,100,29.94,29.73,15,4,15,0.00
2013-10-20,66,55,48,0,0,0,0,0,100,29.98,29.66,24,5,27,0.00
2013-10-21,71,53,40,0,0,0,0,0,100,30.09,29.97,15,3,15,0.00
2013-10-22,68,55,48,0,0,0,0,0,100,29.97,29.68,20,2,20,0.00
2013-10-23,59,48,40,0,0,0,0,0,100,29.77,29.56,9,1,10,0.00
2013-10-24,57,47,40,0,0,0,0,0,100,29.84,29.59,23,6,28,0.00
2013-10-25,52,42,35,0,0,0,0,0,100,30.12,29.84,22,4,22,0.00
2013-10-26,55,45,34,0,0,0,0,0,100,30.13,29.85,23,6,24,0.00
2013-10-27,58,48,40,0,0,0,0,0,100,30.02,29.79,19,5,23,0.04
2013-10-28,61,46,37,0,0,0,0,0,100,30.33,30.02,24,6,26,0.00
2013-10-29,53,39,29,0,0,0,0,0,100,30.44,30.33,11,2,11,0.00
2013-10-30,50,40,34,0,0,0,0,0,100,30.35,30.18,10,1,11,0.02
2013-10-31,61,47,33,0,0,0,0,0,100,30.22,29.76,20,2,21,0.10
2013-11-1,71,64,57,0,0,0,0,0,100,29.76,29.37,46,9,48,0.01
2013-11-2,70,56,48,0,0,0,0,0,100,29.70,29.56,21,1,22,0.00
2013-11-3,52,44,31,0,0,0,0,0,100,30.43,29.69,24,5,25,0.02
2013-11-4,48,36,27,0,0,0,0,0,100,30.67,30.43,15,3,18,0.00
2013-11-5,52,41,28,0,0,0,0,0,100,30.70,30.49,15,5,15,0.00
2013-11-6,63,50,41,0,0,0,0,0,100,30.49,29.99,17,4,18,0.00
2013-11-7,64,53,40,0,0,0,0,0,100,29.99,29.63,20,6,25,0.12
2013-11-8,49,40,34,0,0,0,0,0,100,30.04,29.78,26,5,30,0.00
2013-11-9,41,39,35,0,0,0,0,0,100,30.13,30.02,13,2,16,0.00
2013-11-10,53,45,41,0,0,0,0,0,100,30.02,29.71,19,4,21,0.07
2013-11-11,53,45,39,0,0,0,0,0,100,30.06,29.78,26,6,29,0.00
2013-11-12,48,35,27,0,0,0,0,0,100,30.15,29.84,26,9,28,0.03
2013-11-13,37,30,25,0,0,0,0,0,100,30.26,30.12,21,6,22,0.00
2013-11-14,53,40,28,0,0,0,0,0,100,30.12,29.99,20,6,20,0.00
2013-11-15,59,45,34,0,0,0,0,0,100,30.16,30.08,12,2,15,0.00
2013-11-16,58,44,35,0,0,0,0,0,100,30.30,30.15,10,1,11,0.00
2013-11-17,50,44,34,0,0,0,0,0,100,30.31,29.84,13,1,14,0.09
2013-11-18,66,55,48,0,0,0,0,0,100,29.85,29.48,24,5,27,0.21
2013-11-19,48,39,32,0,0,0,0,0,100,30.24,29.61,31,10,34,0.00
2013-11-20,43,34,28,0,0,0,0,0,100,30.61,30.23,26,5,27,0.00
2013-11-21,49,36,24,0,0,0,0,0,100,30.62,30.34,13,3,14,0.00
2013-11-22,44,40,37,0,0,0,0,0,100,30.34,29.78,11,2,11,0.15
2013-11-23,45,38,30,0,0,0,0,0,100,29.87,29.73,27,8,28,0.00
2013-11-24,30,24,19,0,0,0,0,0,100,30.13,29.73,49,14,49,0.00
2013-11-25,31,25,18,0,0,0,0,0,100,30.32,30.13,20,7,28,0.00
2013-11-26,43,34,29,0,0,0,0,0,100,30.32,30.06,18,4,19,0.15
2013-11-27,58,48,36,0,0,0,0,0,100,30.06,29.19,37,8,41,1.67
2013-11-28,36,31,23,0,0,0,0,0,100,30.41,29.38,18,6,36,0.00
2013-11-29,32,24,19,0,0,0,0,0,100,30.73,30.40,20,3,21,0.00
2013-11-30,38,26,14,0,0,0,0,0,100,30.77,30.41,11,2,11,0.00
2013-12-1,39,35,31,0,0,0,0,0,100,30.41,30.00,12,2,12,0.17
2013-12-2,39,37,35,0,0,0,0,0,100,30.00,29.91,12,2,13,0.00
2013-12-3,48,38,34,0,0,0,0,0,100,29.92,29.82,15,3,15,0.00
2013-12-4,42,35,31,0,0,0,0,0,100,30.18,29.91,16,2,18,0.00
2013-12-5,46,40,31,0,0,0,0,0,100,30.22,29.88,12,1,12,0.02
2013-12-6,51,44,33,0,0,0,0,0,100,30.13,29.83,17,3,20,0.11
2013-12-7,41,33,26,0,0,0,0,0,100,30.43,30.06,22,4,24,0.12
2013-12-8,32,27,23,0,0,0,0,0,100,30.57,30.43,13,1,13,0.00
2013-12-9,42,35,28,0,0,0,0,0,100,30.48,29.85,22,6,23,0.31
2013-12-10,35,31,24,0,0,0,0,0,100,29.95,29.75,18,6,19,0.00
2013-12-11,34,27,22,0,0,0,0,0,100,30.17,29.95,24,8,28,0.00
2013-12-12,25,20,16,0,0,0,0,0,100,30.25,30.03,24,6,26,0.00
2013-12-13,31,20,12,0,0,0,0,0,100,30.40,29.95,23,8,24,0.00
2013-12-14,29,16,8,0,0,0,0,0,100,30.61,30.20,25,5,28,0.00
2013-12-15,34,26,19,0,0,0,0,0,100,30.20,29.40,37,5,39,0.59
2013-12-16,29,23,14,0,0,0,0,0,100,30.20,29.70,22,3,26,0.01
2013-12-17,23,13,4,0,0,0,0,0,100,30.28,29.95,17,3,18,0.00
2013-12-18,34,26,14,0,0,0,0,0,100,30.03,29.85,20,6,21,0.15
2013-12-19,41,32,27,0,0,0,0,0,100,30.08,29.93,23,6,23,0.11
2013-12-20,44,38,32,0,0,0,0,0,100,30.10,29.88,10,1,10,0.00
2013-12-21,54,44,37,0,0,0,0,0,100,29.92,29.82,10,0,11,0.00
2013-12-22,45,35,31,0,0,0,0,0,100,30.03,29.79,21,3,24,0.22
2013-12-23,35,32,30,0,0,0,0,0,100,30.10,29.96,11,0,11,0.31
2013-12-24,35,31,24,0,0,0,0,0,100,30.18,30.03,20,3,20,0.00
2013-12-25,26,19,11,0,0,0,0,0,100,30.53,30.18,24,5,24,0.00
2013-12-26,34,24,18,0,0,0,0,0,100,30.49,30.05,14,2,14,0.00
2013-12-27,34,28,22,0,0,0,0,0,100,30.23,30.15,19,4,19,0.01
2013-12-28,45,34,24,0,0,0,0,0,100,30.18,29.93,16,4,18,0.01
2013-12-29,40,36,31,0,0,0,0,0,100,30.01,29.40,22,3,23,1.09
2013-12-30,42,31,15,0,0,0,0,0,100,30.16,29.47,25,6,28,0.00
2013-12-31,24,16,9,0,0,0,0,0,100,30.17,30.01,18,4,18,0.00
2014-1-1,28,21,17,0,0,0,0,0,100,30.37,30.14,21,6,24,0.00
2014-1-2,20,8,-2,0,0,0,0,0,100,30.36,29.91,21,7,26,0.00